Showing default

HAWK-9C, 59448

Orbit data source: Space-Track

HAWK-9C, 59448 is a payload satellite owned by HawkEye 360 (US) in LEO that was launched on Sun, 07 Apr 2024 UTC via an FALCON 9 launch vehicle from the Air Force Eastern Test Range (AFETR). Payload-class satellites include a variety of spacecraft equipped with specific instruments for various scientific and technological missions. These include communications satellites like Starlink; space stations such as the ISS; scientific satellites like the Hubble; Earth observation satellites from companies like Planet Labs, Umbra, and HawkEye 360; GPS; miniature CubeSats for education and research; and military/defense satellites.

Loading next visibility...
Identifier
59448, 2024-066G
Orbit
LEO
Country
Flag of USUS
Related business
Manufacturer
UTIAS-SFL
Mission
Operational spacecraft
Bus & Motor
HAWK2G, Unknown motor
Mass
31 kg wet, 30 kg dry
Launch date (UTC)
2024-04-07 (1 year ago)
Launch vehicle
FALCON 9
Launch site
Air Force Eastern Test Range (AFETR)
Object type
Payload
Rocket body
Debris
Shape & HBR
Unknown
Radar Cross Section
Medium (>0.1 m² and <1 m²)

Expand to show TLE details & history
Last TLE update: 21 hours ago

TLE from 21 hours ago
0 HAWK-9C
1 59448U 24066G   25247.45638615  .00004191  00000-0  37392-3 0  9998
2 59448  45.5977 311.9537 0004905 294.6051  65.4319 14.97445781 76970
Epoch: 2025-09-04T10:57Z
TLE epoch observation values (Epoch: 2025-09-04T10:57:11.763Z)
Latitude
0.00005°
Longitude
163.83608°
Altitude
573.44 km
Speed
7.576 km/s
True Right ascension
20h 47m 48s
True Declination
0° 00' 00"
Sunlit
Object was in full shadow at epoch
Visualization orbit readout
Latitude
Unknown
Longitude
Unknown
Altitude
Unknown
Speed
Unknown
Apparent Right ascension
Unknown
Apparent Declination
Unknown
Sunlit
N/A
Visualization observer readout
Local Sidereal Time
23:35:55
Azimuth
Unknown
Elevation
Unknown
Doppler factor
Unknown
Orbital elements
Apogee altitude
579.692 km
Perigee altitude
572.869 km
Semi-major axis
6,954.418 km
Eccentricity
0.00049
Inclination
45.5977°
RAAN
311.9537°
Arg. of periapsis
294.6051°
True anomaly
65.48303°
Mean anomaly
65.4319°
Eccentric anomaly
65.45746°
Mean motion
3.74242 °/min
Orbital period
96.19 mins
BSTAR
0.00037392
Loading maneuver chart data...
Computing Atmospheric mass density...
Loading historical data...
Loading historical data...
Loading historical data...
Loading historical data...
Loading historical data...
Loading historical data...
Loading historical data...

Documentation

Showing up to 5 results
|